TimeMST,TemperatureF,Dew PointF,Humidity,Sea Level PressureIn,VisibilityMPH,Wind Direction,Wind SpeedMPH,Gust SpeedMPH,PrecipitationIn,Events,Conditions,WindDirDegrees,DateUTC
12:53 AM,-7.1,-9.9,87,30.34,10.0,Calm,Calm,-,N/A,,Clear,0,2012-12-26 07:53:00
1:53 AM,-6.0,-9.9,83,30.33,10.0,Calm,Calm,-,N/A,,Clear,0,2012-12-26 08:53:00
2:53 AM,-2.9,-7.1,82,30.33,10.0,Calm,Calm,-,N/A,,Clear,0,2012-12-26 09:53:00
3:00 AM,-4.0,-7.6,85,30.12,10.0,WSW,3.5,-,N/A,,Scattered Clouds,240,2012-12-26 10:00:00
3:53 AM,-7.1,-11.0,83,30.33,10.0,South,4.6,-,N/A,,Clear,190,2012-12-26 10:53:00
4:53 AM,-7.1,-11.0,83,30.30,10.0,SSE,4.6,-,N/A,,Clear,160,2012-12-26 11:53:00
5:53 AM,-6.0,-11.9,75,30.28,10.0,Calm,Calm,-,N/A,,Clear,0,2012-12-26 12:53:00
6:53 AM,-5.1,-11.0,76,30.27,10.0,SE,4.6,-,N/A,,Clear,140,2012-12-26 13:53:00
7:53 AM,3.0,-2.9,76,30.24,10.0,SSE,5.8,-,N/A,,Clear,160,2012-12-26 14:53:00
8:53 AM,9.0,3.9,80,30.23,10.0,South,11.5,-,N/A,,Clear,180,2012-12-26 15:53:00
9:53 AM,10.0,3.9,76,30.23,10.0,South,9.2,-,N/A,,Clear,190,2012-12-26 16:53:00
10:53 AM,12.0,7.0,80,30.20,10.0,SSE,6.9,-,N/A,,Clear,150,2012-12-26 17:53:00
11:53 AM,14.0,8.1,77,30.14,10.0,SSE,10.4,-,N/A,,Clear,160,2012-12-26 18:53:00
12:53 PM,15.1,8.1,74,30.11,10.0,SE,12.7,-,N/A,,Clear,140,2012-12-26 19:53:00
1:53 PM,15.1,9.0,77,30.08,10.0,SE,12.7,-,N/A,,Clear,130,2012-12-26 20:53:00
2:53 PM,16.0,9.0,74,30.05,10.0,SE,12.7,-,N/A,,Clear,130,2012-12-26 21:53:00
3:53 PM,10.0,5.0,80,30.09,10.0,SE,6.9,-,N/A,,Partly Cloudy,140,2012-12-26 22:53:00
4:07 PM,12.2,6.8,79,29.87,10.0,SE,10.4,-,N/A,,Mostly Cloudy,140,2012-12-26 23:07:00
4:53 PM,12.2,6.8,79,29.85,10.0,ESE,13.8,-,N/A,,Overcast,120,2012-12-26 23:53:00
5:53 PM,12.0,7.0,80,30.05,10.0,SE,15.0,-,N/A,,Overcast,130,2012-12-27 00:53:00
6:53 PM,10.0,6.1,84,30.06,10.0,SE,15.0,-,N/A,,Overcast,130,2012-12-27 01:53:00
7:53 PM,10.0,6.1,84,30.02,10.0,ESE,15.0,-,0.00,,Overcast,120,2012-12-27 02:53:00
8:53 PM,10.0,7.0,87,29.99,10.0,ESE,15.0,-,N/A,,Overcast,120,2012-12-27 03:53:00
9:53 PM,10.0,7.0,87,29.98,10.0,SE,13.8,-,N/A,,Overcast,130,2012-12-27 04:53:00
10:53 PM,10.9,7.0,84,29.95,10.0,ESE,13.8,-,N/A,,Overcast,120,2012-12-27 05:53:00
11:53 PM,10.9,8.1,88,29.95,10.0,ESE,10.4,-,N/A,,Overcast,120,2012-12-27 06:53:00